Nantucket, Massachusetts, United States (02554)
Lat: 41.28N, Lon: 70.1W
Wx Zone: MAZ024
Local Info
Past Weather Observations for Today

NOTE: This archive is for the closest National Weather Service station to Nantucket. Information may differ from the station used for current weather conditions.

Click here for Long-term Archive

Time Weather Temperature Dewpoint Humidity Pressure Winds Precip Visibility
12:53
Overcast
Light Snow
28°F / -2°C 25°F / -4°C 86% 30.04 in
(1017 mb)
N 16.1 mph
(N 26 kph)
0.00 in
(0.00 mm)
1 3/4SM
12:16
Overcast
Light Snow
28°F / -2°C 27°F / -3°C 93% 30.04 in
(1017 mb)
N 11.5 mph
(N 19 kph)
0.00 in
(0.00 mm)
1 1/4SM
12:07
Overcast
Light Snow
28°F / -2°C 25°F / -4°C 86% 30.04 in
(1017 mb)
N 13.8 mph
(N 22 kph)
0.00 in
(0.00 mm)
1SM
11:53
Overcast
Light Snow
28°F / -2°C 27°F / -3°C 93% 30.04 in
(1017 mb)
N 13.8 mph
(N 22 kph)
0.00 in
(0.00 mm)
3/4SM
10:53
Overcast
Light Snow
30°F / -1°C 27°F / -3°C 86% 30.06 in
(1018 mb)
N 17.3 mph
(N 28 kph)
0.00 in
(0.00 mm)
3/4SM
10:19
Obscured
Snow
30°F / -1°C 28°F / -2°C 93% 30.04 in
(1017 mb)
N 15 mph
(N 24 kph)
0.00 in
(0.00 mm)
1/2SM
09:53
Overcast
Light Snow
30°F / -1°C 28°F / -2°C 93% 30.04 in
(1017 mb)
N 12.7 mph
(N 20 kph)
0.01 in
(0.25 mm)
3/4SM
08:53
Overcast
Light Snow
32°F / 0°C 30°F / -1°C 93% 30.01 in
(1016 mb)
NNW 10.4 mph
(NNW 17 kph)
0.00 in
(0.00 mm)
3/4SM
07:53
Overcast
Light Snow
32°F / 0°C 30°F / -1°C 93% 30.01 in
(1016 mb)
NNW 9.2 mph
(NNW 15 kph)
0.00 in
(0.00 mm)
1SM
06:53
Overcast
Light Snow
34°F / 1°C 30°F / -1°C 87% 29.98 in
(1015 mb)
NNW 18.4 mph
(NNW 30 kph)
0.00 in
(0.00 mm)
1 1/4SM
06:10
Overcast
Light Snow
34°F / 1°C 30°F / -1°C 87% 29.98 in
(1015 mb)
N 13.8 mph
(N 22 kph)
0.00 in
(0.00 mm)
2 1/2SM
05:53
Overcast
Light Rain
34°F / 1°C 32°F / 0°C 93% 29.98 in
(1015 mb)
NNW 12.7 mph
(NNW 20 kph)
0.02 in
(0.51 mm)
4SM
05:40
Overcast
Unknown Precip
36°F / 2°C 32°F / 0°C 87% 29.95 in
(1014 mb)
NNW 13.8 mph
(NNW 22 kph)
0.01 in
(0.25 mm)
3SM
05:08
Overcast
Unknown Precip
36°F / 2°C 34°F / 1°C 93% 29.89 in
(1012 mb)
NNW 10.4 mph
(NNW 17 kph)
0.00 in
(0.00 mm)
2SM
05:00
Overcast
Unknown Precip
37°F / 3°C 34°F / 1°C 87% 29.89 in
(1012 mb)
NNW 11.5 mph
(NNW 19 kph)
0.00 in
(0.00 mm)
3SM
04:53
Overcast
Unknown Precip
37°F / 3°C 36°F / 2°C 93% 29.92 in
(1013 mb)
NNW 9.2 mph
(NNW 15 kph)
0.04 in
(1.02 mm)
3SM
04:50
Overcast
Fog And Mist
37°F / 3°C 36°F / 2°C 93% 29.92 in
(1013 mb)
NNW 6.9 mph
(NNW 11 kph)
0.04 in
(1.02 mm)
3SM
04:29
Overcast
Unknown Precip
36°F / 2°C 36°F / 2°C 100% 29.92 in
(1013 mb)
NW 5.8 mph
(NW 9 kph)
0.03 in
(0.76 mm)
3SM
04:08
Overcast
Rain
36°F / 2°C 34°F / 1°C 93% 29.89 in
(1012 mb)
WNW 4.6 mph
(WNW 7 kph)
0.02 in
(0.51 mm)
2SM
03:53
Overcast
Unknown Precip
36°F / 2°C 34°F / 1°C 93% 29.89 in
(1012 mb)
W 5.8 mph
(W 9 kph)
0.03 in
(0.76 mm)
1 1/2SM
03:37
Overcast
Unknown Precip
36°F / 2°C 34°F / 1°C 93% 29.89 in
(1012 mb)
W 6.9 mph
(W 11 kph)
0.03 in
(0.76 mm)
1SM
03:04
Overcast
Light Rain
36°F / 2°C 34°F / 1°C 93% 29.86 in
(1011 mb)
SSW 6.9 mph
(SSW 11 kph)
0.01 in
(0.25 mm)
3/4SM
02:53
Overcast
Light Rain
36°F / 2°C 34°F / 1°C 93% 29.86 in
(1011 mb)
SSW 5.8 mph
(SSW 9 kph)
0.02 in
(0.51 mm)
1/2SM
02:39
Obscured
Unknown Precip
36°F / 2°C 36°F / 2°C 100% 29.86 in
(1011 mb)
W 5.8 mph
(W 9 kph)
0.01 in
(0.25 mm)
1/2SM
02:23
Obscured
Unknown Precip
36°F / 2°C 34°F / 1°C 93% 29.86 in
(1011 mb)
SSW 3.5 mph
(SSW 6 kph)
0.01 in
(0.25 mm)
1/4SM
01:53
Obscured
Unknown Precip
36°F / 2°C 34°F / 1°C 93% 29.86 in
(1011 mb)
SW 5.8 mph
(SW 9 kph)
0.02 in
(0.51 mm)
1/2SM
01:49
Overcast
Unknown Precip
36°F / 2°C 36°F / 2°C 100% 29.86 in
(1011 mb)
SW 4.6 mph
(SW 7 kph)
0.02 in
(0.51 mm)
1/2SM
00:53
Overcast
Light Rain
37°F / 3°C 36°F / 2°C 93% 29.89 in
(1012 mb)
SSW 8.1 mph
(SSW 13 kph)
0.06 in
(1.52 mm)
1 1/2SM
00:12
Overcast
Rain
36°F / 2°C 34°F / 1°C 93% 29.89 in
(1012 mb)
SSW 8.1 mph
(SSW 13 kph)
0.02 in
(0.51 mm)
1 1/2SM
Time Weather Temperature Dewpoint Humidity Pressure Winds Precip Visibility


Weather for websites

WeatherForYou.com, LLC is not responsible for any damages or problems caused by this service. Current weather conditions are obtained from the closest station including government and personal stations which may have varying degrees of accuracy. Weather forecasts are derived from the NOAA NDFD. Like all things, this site belongs to Jesus Christ... He just trusts me to maintain it. If you have any questions or comments email webmaster@weatherforyou.com

Copyright © 2015, WeatherForYou.com LLC. All rights reserved.